Tucson, AZ

4:53 AM MST on August 22, 2019 (GMT -0700)
Tucson International

Weather History for KTUS - May, 2019

Change the Weather History Date:

Tuesday, May 7, 2019

  Actual Average Record
Temperature  
Mean Temperature 68 °F 73 °F  
Max Temperature 77 °F 89 °F 105 °F (1989)
Min Temperature 58 °F 58 °F 37 °F (1915)
Degree Days  
Heating Degree Days 0 0  
Month to date heating degree days 0 3  
Since 1 July heating degree days 1408 1509  
Cooling Degree Days 3 9  
Month to date cooling degree days 52 55  
Year to date cooling degree days 232 209  
Growing Degree Days 17 (Base 50)    
Moisture  
Dew Point 35 °F    
Average Humidity 31    
Maximum Humidity 46    
Minimum Humidity 14    
Precipitation  
Precipitation 0.00 in 0.00 in 0.13 in (1995)
Month to date precipitation 0.00 0.04  
Year to date precipitation 3.81 2.88  
Sea Level Pressure  
Sea Level Pressure 29.86 in    
Wind  
Wind Speed 8 mph (West)    
Max Wind Speed 18 mph    
Max Gust Speed 27 mph    
Visibility 10 miles    
Events      
T = Trace of Precipitation, MM = Missing Value Source: NWS Daily Summary

Daily Weather History Graph

Daily Weather History Graph

Search for Another Location

Airport or City:

Astronomy

May. 07, 2019 Rise Set
Actual Time 5:32 AM MST 7:08 PM MST
Civil Twilight 5:06 AM MST 7:35 PM MST
Nautical Twilight 4:34 AM MST 8:06 PM MST
Astronomical Twilight 4:01 AM MST 8:40 PM MST
Moon 7:45 AM MST (5/7) 10:07 PM MST (5/7)
Length of Visible Light 14h 29m
Length of Day
13h 36m
Waxing Crescent, 9% of the Moon is Illuminated
May 7
Waxing Crescent
May 11
First Quarter
May 18
Full
May 26
Last Quarter
Jun 3
New

Hourly Weather History & Observations

Time (MST) Temp. Dew Point Humidity Pressure Visibility Wind Dir Wind Speed Gust Speed Precip Events Conditions
12:53 AM 66.0 °F 32.0 °F 28% 29.80 in 10.0 mi South 5.8 mph - N/A   Clear
1:53 AM 62.1 °F 33.1 °F 34% 29.80 in 10.0 mi WNW 3.5 mph - N/A   Clear
2:53 AM 62.1 °F 36.0 °F 38% 29.81 in 10.0 mi WNW 3.5 mph - N/A   Clear
3:53 AM 61.0 °F 36.0 °F 39% 29.82 in 10.0 mi Calm Calm - N/A   Clear
4:53 AM 59.0 °F 35.1 °F 41% 29.84 in 10.0 mi SE 8.1 mph - N/A   Mostly Cloudy
5:53 AM 57.9 °F 36.0 °F 44% 29.85 in 10.0 mi SSE 5.8 mph - N/A   Overcast
6:53 AM 57.9 °F 37.0 °F 46% 29.88 in 10.0 mi South 6.9 mph - N/A   Overcast
7:53 AM 60.1 °F 37.9 °F 44% 29.90 in 10.0 mi Calm Calm - N/A   Overcast
8:53 AM 66.0 °F 37.9 °F 36% 29.89 in 10.0 mi Calm Calm - N/A   Partly Cloudy
9:53 AM 69.1 °F 39.0 °F 33% 29.89 in 10.0 mi West 8.1 mph - N/A   Scattered Clouds
10:53 AM 70.0 °F 35.1 °F 28% 29.88 in 10.0 mi NW 8.1 mph - N/A   Partly Cloudy
11:53 AM 72.0 °F 35.1 °F 26% 29.88 in 10.0 mi West 6.9 mph - N/A   Mostly Cloudy
12:53 PM 73.9 °F 36.0 °F 25% 29.86 in 10.0 mi West 15.0 mph 23.0 mph N/A   Scattered Clouds
1:53 PM 73.9 °F 35.1 °F 24% 29.86 in 10.0 mi West 15.0 mph 23.0 mph N/A   Mostly Cloudy
2:53 PM 75.0 °F 36.0 °F 24% 29.84 in 10.0 mi WSW 15.0 mph 23.0 mph N/A   Mostly Cloudy
3:53 PM 77.0 °F 34.0 °F 21% 29.83 in 10.0 mi West 13.8 mph 21.9 mph N/A   Scattered Clouds
4:53 PM 75.9 °F 36.0 °F 23% 29.83 in 10.0 mi WNW 13.8 mph 24.2 mph N/A   Partly Cloudy
5:53 PM 73.9 °F 35.1 °F 24% 29.84 in 10.0 mi West 10.4 mph - N/A   Partly Cloudy
6:53 PM 73.0 °F 33.1 °F 23% 29.85 in 10.0 mi WNW 12.7 mph 19.6 mph N/A   Clear
7:53 PM 71.1 °F 33.1 °F 25% 29.86 in 10.0 mi WNW 9.2 mph - N/A   Clear
8:53 PM 68.0 °F 34.0 °F 28% 29.88 in 10.0 mi NNW 4.6 mph - N/A   Clear
9:53 PM 66.0 °F 34.0 °F 30% 29.89 in 10.0 mi NW 3.5 mph - N/A   Clear
10:53 PM 62.1 °F 35.1 °F 37% 29.88 in 10.0 mi WSW 4.6 mph - N/A   Clear
11:53 PM 59.0 °F 33.1 °F 38% 29.89 in 10.0 mi WSW 6.9 mph - N/A   Clear